SCP
0 0 0 0 0 0 0 0 0 0 0 0 0 0 0 0 0 0 0 0 0 0 0 0 0 0 0 0 0 0 0 0 0 0 0 0 0 0 0 0 0 0 0 0 0 0 0 0 0
0 0 0 0 0 0 0 0 0 0 0 0 0 0 0 0 0 0 0 0 0 0 0 0 0 0 0 0 0 0 0 0 0 0 0 0 0 0 0 0 0 0 0 0 0 0 0 0 0
0 0 0 0 0 0 0 0 0 0 0 0 0 0 0 0 0 0 0 0 0 0 0 0 0 0 0 0 0 0 0 0 0 0 0 0 0 0 0 0 0 0 0 0 0 0 0 0 0
0 0 0 0 0 0 0 0 0 0 0 0 0 0 0 0 0 0 0 0 0 0 0 0 0 0 0 0 0 0 0 0 0 0 0 0 0 0 0 0 0 0 0 0 0 0 0 0 0
0 0 0 0 0 0 0 0 0 0 0 0 0 0 0 0 0 0 0 0 0 0 0 0 0 0 0 0 0 0 0 0 0 0 0 0 0 0 0 0 0 0 0 0 0 0 0 0 0
0 0 0 0 0 0 0 0 0 0 0 0 0 0 0 0 0 0 0 0 0 0 0 0 0 0 0 0 0 0 0 0 0 0 0 0 0 0 0 0 0 0 0 0 0 0 0 0 0
0 0 0 0 0 0 0 0 0 0 0 0 0 0 0 0 0 0 0 0 0 0 0 0 0 0 0 0 0 0 0 0 0 0 0 0 0 0 0 0 0 0 0 0 0 0 0 0 0
0 0 0 0 0 0 0 0 0 0 0 0 0 0 0 0 0 0 0 0 0 0 0 0 0 0 0 0 0 0 0 0 0 0 0 0 0 0 0 0 0 0 0 0 0 0 0 0 0
0 0 0 0 0 0 0 0 0 0 0 0 0 0 0 0 0 0 0 0 0 0 0 0 0 0 0 0 0 0 0 0 0 0 0 0 0 0 0 0 0 0 0 0 0 0 0 0 0
0 0 0 0 0 0 0 0 0 0 0 0 0 0 0 0 0 0 0 0 0 0 0 0 0 0 0 0 0 0 0 0 0 0 0 0 0 0 0 0 0 0 0 0 0 0 0 0 0
0 0 0 0 0 0 0 0 0 0 0 0 0 0 0 0 0 0 0 0 0 0 0 0 0 0 0 0 0 0 0 0 0 0 0 0 0 0 0 0 0 0 0 0 0 0 0 0 0
0 0 0 0 0 0 0 0 0 0 0 0 0 0 0 0 0 0 0 0 0 0 0 0 0 0 0 0 0 0 0 0 0 0 0 0 0 0 0 0 0 0 0 0 0 -0 0 0 0
0 0 0 0 0 0 0 0 0 0 0 0 0 0 0 0 0 0 0 0 0 0 0 0 0 0 0 0 0 0 0 0 0 0 0 0 0 0 0 0 0 0 0 0 0 0 0 0 0
0 0 0 0 0 0 0 0 0 0 0 0 0 0 0 0 0 0 0 0 0 0 0 0 0 0 0 0 0 0 0 0 0 0 0 0 0 0 0 0 0 0 0 0 0 0 0 0 0
0 0 0 0 0 0 0 0 0 0 0 0 0 0 0 0 0 0 0 0 0 0 0 0 0 0 0 0 0 0 0 0 0 0 0 0 0 0 0 0 0 0 0 0 0 0 0 0 0
0 0 0 0 0 0 0 0 0 0 0 0 0 0 0 0 0 0 0 0 0 0 0 0 0 0 0 0 0 0 0 0 0 0 0 0 0 0 0 0 0 0 0 0 0 0 0 0 0
0 0 0 0 0 0 0 0 0 0 0 0 0 0 0 0 0 0 0 0 0 0 0 0 0 0 0 0 0 0 0 0 0 0 0 0 0 0 0 0 0 0 0 0 0 0 0 0 0
0 0 0 0 0 0 0 0 0 0 0 0 0 0 0 0 0 0 0 0 0 0 0 0 0 0 0 0 0 0 0 0 0 0 0 0 0 0 0 0 0 0 0 0 0 0 0 0 0
0 0 0 0 0 0 0 0 0 0 0 0 0 0 0 0 0 0 0 0 0 0 0 0 0 0 0 0 0 0 0 0 0 0 0 0 0 0 0 0 0 0 0 0 0 0 0 0 0
0 0 0 0 0 0 0 0 0 0 0 0 0 0 0 0 0 0 0 0 0 0 0 0 0 0 0 0 0 0 0 0 0 0 0 0 0 0 0 0 0 0 0 0 0 0 0 0 0
0 0 0 0 0 0 0 0 0 0 0 0 0 0 0 0 0 0 0 0 0 0 0 0 0 0 0 0 0 0 0 0 0 0 0 0 0 0 0 0 0 0 0 0 0 0 0 0 0
0 0 0 0 0 0 0 0 0 0 0 0 0 0 0 0 0 0 0 0 0 0 0 0 0 0 0 0 0 0 0 0 0 0 0 0 0 0 0 0 0 0 0 0 0 0 0 0 0
0 0 0 0 0 0 0 0 0 0 0 0 0 0 0 0 0 0 0 0 0 0 0 0 0 0 0 0 0 0 0 0 0 0 0 0 0 0 0 0 0 0 0 0 0 0 0 0 0
0 0 0 0 0 0 0 0 0 0 0 0 0 0 0 0 0 0 0 0 0 0 0 0 0 0 0 0 0 0 0 0 0 0 0 0 0 0 0 0 0 0 0 0 0 0 0 0 0
0 0 0 0 0 0 0 0 0 0 0 0 0 0 0 0 0 0 0 0 0 0 0 0 0 0 0 0 0 0 0 0 0 0 0 0 0 0 0 0 0 0 0 0 0 0 0 0 0
0 0 0 0 0 0 0 0 0 0 0 0 0 0 0 0 0 0 0 0 0 0 0 0 0 0 0 0 0 0 0 0 0 0 0 0 0 0 0 0 0 0 0 0 0 0 0 0 0
0 0 0 0 0 0 0 0 0 0 0 0 0 0 0 0 0 0 0 0 0 0 0 0 0 0 0 0 0 0 0 0 0 0 0 0 0 0 0 0 0 0 0 0 0 0 0 0 0
0 0 0 0 0 0 0 0 0 0 0 0 0 0 0 0 0 0 0 0 0 0 0 0 0 0 0 0 0 0 0 0 0 0 0 0 0 0 0 0 0 0 0 0 0 0 0 0 0
0 0 0 0 0 0 0 0 0 0 0 0 0 0 0 0 0 0 0 0 0 0 0 0 0 0 0 0 0 0 0 0 0 0 0 0 0 0 0 0 0 0 0 0 0 0 0 0 0
0 0 0 0 0 0 0 0 0 0 0 0 0 0 0 0 0 0 0 0 0 0 0 0 0 0 0 0 0 0 0 0 0 0 0 0 0 0 0 0 0 0 0 0 0 0 0 0 0
Wind_Speed
7 4 2 4 6 5 1 2 3 2 2 1 4 9 8 5 3 3 2 10 12 12 10 13 16 15 14 14 13 13 12 12 12 11 11 11 11 11 11 11 12 12 12 12 12 12 12 12 12
3 2 4 5 5 2 2 2 4 3 4 4 5 6 6 2 2 6 5 11 16 13 10 10 16 16 15 14 14 13 13 12 11 11 11 10 10 10 11 11 11 11 11 11 11 11 11 11 11
2 2 5 5 3 4 3 4 5 3 3 4 4 4 5 5 5 7 8 15 13 11 9 12 17 16 16 15 14 13 13 12 12 11 11 10 10 10 10 10 10 10 10 10 10 10 10 10 10
3 5 5 4 1 4 7 6 5 4 2 3 5 4 2 2 6 7 13 16 14 10 9 12 18 17 16 15 14 14 13 12 11 11 10 10 10 9 9 9 9 8 8 9 9 9 9 8 8
4 5 4 2 2 2 4 5 5 4 3 2 5 5 1 4 3 11 16 16 15 11 9 12 18 18 17 15 15 14 13 12 11 11 10 9 9 8 8 8 7 7 7 7 7 7 7 7 7
5 5 3 1 3 2 3 3 4 3 2 2 5 5 1 0 7 11 13 14 14 14 11 11 18 18 17 16 15 14 14 13 12 10 9 9 8 8 7 6 6 5 5 5 5 6 6 6 6
4 3 1 3 2 2 3 2 5 5 3 3 7 6 2 3 6 9 10 11 12 12 11 9 10 12 16 16 15 14 14 13 12 11 9 9 8 7 6 6 5 4 4 4 4 4 4 5 6
5 4 1 1 2 3 2 1 4 6 3 2 6 9 7 8 6 7 8 9 10 10 10 9 8 8 8 9 13 14 13 12 12 10 9 7 7 6 6 5 4 3 2 2 2 3 4 5 5
4 4 0 2 2 2 1 1 0 3 4 2 2 7 7 9 9 9 7 6 8 9 8 9 9 8 7 7 10 10 11 11 10 8 8 6 3 2 3 3 4 3 1 1 2 3 4 4 5
4 3 3 2 2 1 1 1 1 1 1 1 2 1 4 10 11 12 11 12 12 12 11 9 10 9 8 7 6 5 5 5 5 4 5 3 3 2 3 3 3 3 1 1 2 3 4 4 3
3 5 4 2 2 2 0 2 1 3 3 6 6 6 8 8 10 11 12 13 14 14 13 11 11 10 9 6 5 4 3 4 4 5 5 4 3 2 2 1 1 1 1 1 2 3 2 2 2
2 3 3 3 2 2 2 2 2 4 8 6 8 11 11 11 13 13 13 12 11 12 14 13 12 11 10 8 6 5 4 4 4 5 5 4 3 2 2 1 1 1 0 1 1 1 2 2 2
2 3 3 3 3 3 3 4 3 6 8 4 4 9 13 13 12 12 11 10 11 13 14 13 13 12 11 9 7 7 6 6 6 5 5 5 4 3 3 2 2 2 1 1 1 1 1 2 2
3 3 4 5 4 3 4 4 3 9 5 3 6 10 12 14 14 10 9 10 12 13 14 13 14 13 12 10 8 7 7 6 5 5 6 7 5 4 4 3 2 2 2 1 1 0 1 1 2
1 2 6 5 4 3 1 6 7 10 3 5 8 9 11 12 11 12 13 13 13 13 13 13 14 13 13 11 10 8 7 7 6 6 6 7 6 5 4 3 2 2 2 1 1 0 1 1 2
2 1 4 6 3 3 3 9 10 7 4 7 9 9 10 11 11 12 13 11 12 12 13 13 12 13 13 11 9 7 7 7 6 5 5 7 7 6 5 3 3 2 2 1 1 0 1 1 2
2 1 4 6 2 3 5 10 10 5 5 8 9 9 9 10 10 11 12 12 12 14 14 13 12 13 13 11 8 7 7 7 6 6 5 6 7 7 5 4 3 3 2 1 1 1 1 1 2
4 3 3 5 3 3 6 12 13 7 7 10 9 8 8 10 13 11 11 11 11 12 13 13 12 12 11 8 6 5 5 5 5 6 6 7 6 7 5 4 4 3 2 2 1 1 0 0 1
4 3 5 6 4 3 8 13 15 10 7 9 9 8 9 11 10 8 9 9 9 10 11 12 12 12 10 8 7 7 6 5 5 6 7 8 7 7 6 4 4 4 3 3 3 2 1 0 1
4 4 5 6 4 3 7 12 11 8 6 7 8 9 9 8 5 6 7 8 10 11 12 12 13 13 12 9 8 5 5 4 5 5 6 8 8 7 6 6 5 5 3 3 3 2 2 0 1
6 6 6 5 6 4 5 10 7 6 4 4 5 5 6 7 8 7 8 9 9 11 13 12 13 13 12 10 6 4 3 2 3 4 5 6 8 8 7 7 6 5 5 4 4 4 4 2 1
8 6 5 3 2 5 1 6 10 6 6 5 5 5 6 6 6 7 8 9 10 11 10 11 12 11 11 11 10 10 8 7 7 5 5 6 7 8 8 7 7 6 5 5 5 4 3 4 2
7 4 3 3 2 4 3 4 11 4 5 7 7 6 6 5 6 7 9 10 9 9 9 9 10 10 10 11 12 11 9 7 4 4 6 6 6 7 7 7 6 6 5 5 5 4 4 4 4
5 3 3 3 3 5 6 6 10 6 7 6 6 6 6 5 5 5 5 6 6 6 7 8 9 10 10 11 11 12 11 9 7 7 7 6 4 5 7 7 6 6 5 6 6 5 6 4 4
5 5 1 2 1 8 4 5 12 9 8 8 8 7 6 5 5 5 6 7 7 8 8 8 10 10 10 11 11 12 11 11 11 10 9 7 5 5 7 7 6 6 6 6 5 5 5 5 5
8 10 8 6 5 5 3 8 11 7 5 5 5 5 5 5 5 6 7 8 8 9 9 9 10 10 10 11 11 10 10 8 8 9 8 9 8 7 7 8 8 7 7 6 5 4 5 5 5
8 8 7 5 2 3 7 8 10 2 2 4 4 4 6 7 7 7 7 7 8 9 10 11 11 9 10 10 9 9 9 9 8 8 8 7 6 6 7 8 8 7 7 7 6 5 5 5 5
8 9 6 5 5 5 7 6 7 6 7 6 6 7 8 7 6 7 6 7 7 8 8 8 9 10 9 9 9 8 9 9 8 7 8 8 7 7 7 8 7 7 7 6 6 5 5 5 5
7 7 6 6 5 6 5 9 8 9 9 9 9 9 9 8 7 7 6 6 6 5 6 7 7 7 7 8 8 7 7 7 7 7 8 8 7 7 8 8 8 7 7 7 6 6 6 6 6
8 9 10 8 7 6 5 11 7 7 8 8 9 8 7 7 6 5 5 4 4 5 5 6 6 7 7 7 7 7 6 6 7 7 7 7 7 7 8 8 7 7 7 7 8 8 7 7 7
Wind_Direction
338 340 74 58 53 50 32 270 168 139 92 91 100 100 109 118 147 168 169 147 146 150 158 155 152 147 142 138 133 127 122 117 111 106 101 96 92 89 87 83 81 77 74 71 69 68 67 66 63
343 4 59 59 79 75 295 246 139 149 155 131 93 96 98 110 147 133 132 154 149 151 152 154 153 149 145 142 137 133 128 123 118 112 106 101 98 95 92 88 84 80 76 73 70 68 67 65 61
340 56 76 71 107 171 186 211 164 168 151 116 85 79 129 161 164 166 164 151 147 149 150 156 155 152 149 147 143 139 134 129 124 118 112 107 103 100 95 91 86 82 77 73 70 67 64 61 58
53 44 54 71 184 213 178 199 175 134 106 92 106 88 110 181 180 172 148 148 146 150 152 159 157 154 152 150 147 145 140 137 132 126 120 114 109 104 99 94 89 83 79 75 73 68 62 56 53
61 69 56 30 246 226 192 188 162 137 151 117 113 117 92 333 136 140 148 151 152 154 158 162 160 158 156 153 151 150 147 144 140 135 130 124 118 112 108 102 95 88 81 76 72 65 57 51 48
56 66 81 241 237 231 228 182 135 133 152 128 114 125 183 339 137 150 154 155 156 157 160 164 165 162 160 159 157 156 153 150 148 144 140 135 132 129 124 116 107 96 86 79 70 59 49 42 38
99 95 178 217 216 225 229 169 131 134 149 178 136 128 194 214 179 156 153 151 154 158 160 163 165 164 164 165 165 163 160 157 155 153 150 147 145 143 139 133 126 110 92 76 63 49 35 28 20
123 103 18 274 214 235 240 148 146 144 172 167 128 147 195 209 183 140 137 146 154 160 164 161 160 159 161 164 167 166 165 165 164 161 158 157 157 151 151 149 149 138 117 75 41 24 15 6 356
92 79 308 265 204 247 292 94 322 156 130 100 125 181 202 161 144 131 131 145 160 168 171 165 162 161 159 162 170 169 170 172 168 165 165 158 148 146 152 172 179 170 151 64 13 1 354 350 341
93 139 228 237 194 193 345 69 214 118 115 117 33 15 123 142 153 159 163 169 174 178 180 174 170 167 164 170 165 164 166 166 159 159 163 154 155 175 179 187 186 176 168 338 336 339 346 350 336
149 190 221 240 215 174 291 314 267 161 222 210 195 183 158 163 171 178 181 179 182 180 180 180 178 173 171 170 165 166 162 160 163 169 168 161 160 174 173 167 204 230 320 341 338 346 343 337 319
184 237 218 223 217 178 207 257 288 214 225 221 198 175 171 179 187 190 189 187 181 179 185 182 180 177 177 173 173 172 169 169 173 179 172 160 162 167 166 170 185 190 219 256 304 311 321 323 317
226 261 266 244 227 218 224 237 249 255 251 249 193 171 184 190 197 200 195 186 179 183 186 183 181 179 178 174 177 177 177 178 181 180 175 166 167 174 175 182 181 194 199 205 252 300 327 333 334
223 247 277 264 244 239 232 262 255 260 252 216 187 192 200 200 200 199 196 192 189 188 187 183 182 181 177 178 179 179 180 180 179 181 180 174 173 175 174 181 184 197 195 195 190 229 340 337 341
241 307 310 276 232 239 202 286 243 248 245 222 219 215 213 214 206 202 200 197 194 189 184 182 183 180 179 180 181 179 180 178 179 183 180 177 174 174 174 175 181 197 190 174 152 45 35 7 356
30 6 291 286 219 199 167 263 261 256 228 236 234 231 227 224 216 213 206 200 194 186 183 184 182 180 181 180 180 179 178 177 180 179 178 178 176 172 169 171 185 187 169 156 148 105 43 357 339
12 249 257 290 240 187 199 252 265 261 233 243 243 235 231 232 231 222 211 201 193 188 183 182 180 180 182 178 176 176 175 179 180 178 179 182 178 173 168 177 187 174 156 156 159 116 139 298 314
220 222 249 260 271 208 239 259 273 269 236 242 245 240 233 230 230 221 210 200 192 188 184 182 180 180 176 172 166 168 174 182 180 182 185 181 179 177 172 176 180 165 154 163 155 151 128 222 289
197 213 252 256 261 248 253 267 276 275 253 249 246 242 238 237 237 220 205 192 183 183 182 182 181 180 173 173 175 176 185 187 187 191 188 184 182 179 176 175 176 171 174 182 173 155 154 286 354
215 243 264 284 296 268 276 278 277 270 247 237 237 238 237 240 238 216 200 188 186 186 186 185 185 183 182 183 180 177 171 181 189 190 192 190 185 183 182 180 181 177 173 174 174 158 152 201 87
223 221 233 263 321 337 329 306 295 289 274 264 249 240 235 224 221 210 197 193 189 190 190 189 188 185 185 177 159 140 131 138 179 198 198 197 190 188 185 185 181 180 176 184 190 177 168 187 217
233 223 212 232 330 297 354 297 288 282 290 272 269 261 250 241 220 207 198 195 197 198 192 190 187 185 182 174 173 173 181 191 197 191 193 196 195 192 189 186 185 186 184 188 194 185 175 166 196
212 198 194 205 206 288 273 237 279 288 264 260 255 254 251 239 216 207 203 201 201 194 189 189 185 187 183 182 184 187 194 196 180 178 188 197 199 197 193 188 187 189 190 192 190 184 185 181 184
163 89 52 59 92 265 232 200 272 243 227 239 244 247 242 231 214 210 204 195 196 189 186 184 185 191 187 187 189 193 195 187 179 187 194 199 201 203 201 192 191 192 192 195 197 193 192 196 194
133 114 32 308 274 248 222 210 250 243 232 219 222 231 226 218 205 204 194 196 198 193 191 187 188 195 193 193 196 198 198 193 196 195 198 198 199 206 207 198 195 196 199 198 192 192 200 196 197
178 160 174 201 220 268 259 230 252 254 241 229 221 217 213 214 214 214 209 204 203 201 196 193 195 200 197 199 202 201 198 198 203 201 200 203 206 208 201 199 201 201 198 197 192 196 204 201 207
163 193 177 149 203 254 263 275 296 265 234 229 227 217 222 224 223 223 221 213 208 205 203 199 199 202 201 202 201 201 200 201 204 202 202 205 207 203 198 200 202 202 199 197 191 204 210 205 213
166 160 138 160 187 235 270 259 243 234 228 230 226 225 231 231 230 229 224 219 216 212 208 202 202 205 204 201 202 204 204 205 204 199 205 206 205 200 195 200 203 204 203 200 197 207 211 210 221
162 174 168 168 179 181 242 260 227 216 210 210 221 225 226 225 225 225 224 221 215 208 202 203 206 206 205 203 203 204 204 202 201 204 208 205 202 198 199 201 202 204 205 202 203 212 210 217 229
178 180 162 174 211 195 206 262 255 228 221 211 221 232 233 227 225 225 221 214 208 207 205 204 205 206 208 202 199 204 203 197 200 208 207 200 200 199 200 198 202 207 207 204 206 215 216 220 230